Hourly Data Report for March 23, 2003

SHERBROOKE A
QUEBEC

45°26'00.000" N
71°41'00.000" W
241.40 m
7028124
71610
YSC

Download Data

Hourly Data (March 2003)
Hourly Data Report for March 23, 2003
TIME
LST
Temp Definition
°C
Dew Point Definition
°C
Rel Hum Definition
%
Precip. Amount Definition
mm

Wind Dir Definition
10's deg

Wind Spd Definition
km/h
Visibility Definition
km
Stn Press Definition
kPa
Hmdx Definition


Wind Chill Definition


Weather Definition


00:00 1.9 0.0 87   14 4 1.1 97.84      
01:00 1.3 -0.5 88     0 0.6 97.82     Rain
02:00 1.4 -0.5 87     0 0.5 97.82     Rain
03:00 1.7 -0.2 87   26 4 5.6 97.82     Rain
04:00 1.1 -0.8 87   26 6 3.1 97.82      
05:00 1.0 -1.1 86     0 3.9 97.82      
06:00 0.8 -1.2 86   16 4 1.6 97.88      
07:00 1.1 -0.8 87   16 6 1.1 97.90      
08:00 1.8 -0.2 87   22 4 4.8 97.92     Fog
09:00 2.4 -0.1 84   30 6 16.1 97.96     Cloudy
10:00 2.3 -1.0 79   26 15 24.1 98.02     Drizzle
11:00 3.0 -2.0 70   30 9 24.1 98.04     Mostly Cloudy
12:00 2.9 -2.2 69   29 17 24.1 98.09     Mostly Cloudy
13:00 2.9 -1.7 72   29 19 24.1 98.13     Cloudy
14:00 2.7 -1.9 72   28 17 24.1 98.16     Mostly Cloudy
15:00 3.6 -2.2 66   25 19 24.1 98.20     Mostly Cloudy
16:00 3.0 -2.0 70   28 13 24.1 98.27     Mostly Cloudy
17:00 2.4 -2.3 71   27 9 24.1 98.34     Cloudy
18:00 2.0 -1.9 75   26 7 15.0 98.42      
19:00 1.6 -1.8 78   27 6 15.0 98.49      
20:00 1.4 -1.9 79     0 15.0 98.57      
21:00 1.3 -1.9 79   20 4 15.0 98.64      
22:00 1.3 -1.8 80     0 15.0 98.65      
23:00 1.2 -1.9 80     0 15.0 98.64      

Notes on Data Quality.

Legend

  • E = Estimated
  • M = Missing
  • NA = Not Available*
  • [empty] = Indicates an unobserved value
Date modified: